Weather Roundup
Issued by NWS

Home | Current Version | Previous Version | Graphics & Text | Print | Product List | Glossary Off
Versions: 1 2 3 4 5 6 7 8 9 10 11 12 13 14 15 16 17 18 19 20 21 22 23 24 25 26 27 28 29 30 31 32 33 34 35 36 37 38 39 40 41 42 43 44 45 46 47 48 49 50

000
NZUS93 KARX 250910
HRRWXR

CURRENT HOURLY OBSERVATIONS ACROSS
MUCH OF THE UPPER MISSISSIPPI VALLEY
NATIONAL WEATHER SERVICE LA CROSSE WI
300 AM CST SUN JAN 25 2015


...SOUTHEAST MINNESOTA...


CITY           SKY/WX    TMP DP  RH WIND       PRES   REMARKS
ROCHESTER      CLOUDY    33  29  85 NE14      29.67R WCI  23
ROCHESTER/MAYO CLOUDY    34  30  84 NE9G16    29.68R WCI  27
WINONA         LGT RAIN  36  32  87 NE9       29.72R WCI  29
AUSTIN         LGT SNOW  34  30  86 NE12      29.65R WCI  25
ALBERT LEA     LGT SNOW  34  34 100 NE13      29.65R WCI  25
DODGE CENTER   CLOUDY    34  32  93 NE10G18   29.67R WCI  26
PRESTON        CLOUDY    32  31  94 NE12      29.65R WCI  23
OWATONNA       MIX PCPN  34  30  86 NE15      29.69R WCI  24
FARIBAULT      CLOUDY    34  32  93 N10       29.72R WCI  26
$$

...ELSEWHERE IN MINNESOTA...


CITY           SKY/WX    TMP DP  RH WIND       PRES   REMARKS
MINNEAPOLIS    CLOUDY    30  26  85 N15       29.78R WCI  19
INTNL FALLS    CLOUDY     5  -4  66 E9        29.98R WCI  -9
DULUTH         FLURRIES  19  12  74 E15G22    29.88R WCI   5
RED WING       MIX PCPN  32  28  86 NE8G17    29.74R WCI  25
REDWOOD FALLS  CLOUDY    34  32  92 NE7       29.76R WCI  28
MANKATO        CLOUDY    34  30  86 NE17      29.71R WCI  23
WORTHINGTON    CLOUDY    32  30  93 N17       29.71R WCI  21
FAIRMONT       CLOUDY    34  28  80 N12       29.67R WCI  25
$$

...SOUTHWEST WISCONSIN...


CITY           SKY/WX    TMP DP  RH WIND       PRES   REMARKS
LA CROSSE      CLOUDY    36  30  79 E17G24    29.70R WCI  26
PRAIRIE DU CHI CLOUDY    35  30  83 E7        29.65R WCI  29
BOSCOBEL       LGT SNOW  35  30  82 NE8       29.68R WCI  29
LONE ROCK      CLOUDY    34  30  85 E16       29.70R WCI  24
PLATTEVILLE    CLOUDY    33  31  93 NE16      29.63S WCI  22
FORT MC COY    FLURRIES  30  27  89 NE12G22   29.74R WCI  21
CAMP DOUGLAS   CLOUDY    28  28 100 E13       29.75R WCI  17
VIROQUA        CLOUDY    32  32  99 E17       29.66S WCI  21
WIS DELLS      CLOUDY    28  24  88 NE17G24   29.73R WCI  15
$$

...ELSEWHERE IN WISCONSIN...


CITY           SKY/WX    TMP DP  RH WIND       PRES   REMARKS
MILWAUKEE      FLURRIES  30  24  78 NE17G25   29.74R WCI  18
MADISON        CLOUDY    30  26  85 NE16      29.71R WCI  19
GREEN BAY      CLOUDY    21  14  74 NE21      29.85R WCI   5
EAU CLAIRE     CLOUDY    28  21  75 NE17G24   29.77R WCI  16
BLACK RVR FLS  MIX PCPN  31  30  96 E12G17    29.74R WCI  22
MEDFORD        CLOUDY    21  15  79 NE12      29.79R WCI   9
WAUSAU         CLOUDY    22  14  71 NE14      29.79R WCI   9
WIS RAPIDS     CLOUDY    26  19  74 E17G23    29.79R WCI  13
MARSHFIELD     CLOUDY    28  23  81 E14G21    29.76R WCI  17
RICE LAKE      CLOUDY    23  16  73 N16       29.83R WCI  10
$$

...NORTHEAST IOWA...


CITY           SKY/WX    TMP DP  RH WIND       PRES   REMARKS
DECORAH        CLOUDY    34  32  93 NE7       29.63R WCI  28
MASON CITY     CLOUDY    34  33  96 NE12      29.63R WCI  25
CHARLES CITY   CLOUDY    36  36 100 NE10      29.61R WCI  28
OELWEIN        CLOUDY    34  34 100 NE14      29.59S WCI  24
$$

...ELSEWHERE IN IOWA...


CITY           SKY/WX    TMP DP  RH WIND       PRES   REMARKS
DES MOINES     CLOUDY    41  38  89 N6        29.56R
IOWA CITY      LGT RAIN  35  32  88 NE3       29.59R
FORT DODGE     CLOUDY    34  30  86 N6        29.61R WCI  29
$$

...NORTHERN ILLINOIS...


CITY           SKY/WX    TMP DP  RH WIND       PRES   REMARKS
CHICAGO-OHARE  CLOUDY    32  30  92 NE7       29.67S FOG     WCI  26
CHICAGO-MIDWAY CLOUDY    34  31  88 NE8       29.67F WCI  27
MOLINE         CLOUDY    33  31  92 E3        29.58F
ROCKFORD       CLOUDY    34  29  82 E12       29.67S WCI  25
PEORIA         CLOUDY    39  32  76 CALM      29.60S
$$

NOTE: "FAIR" INDICATES FEW OR NO CLOUDS BELOW 12,000 FEET WITH NO
SIGNIFICANT WEATHER AND/OR OBSTRUCTIONS TO VISIBILITY. WIND
SPEEDS ARE IN MILES-PER-HOUR.



USA.gov is the U.S. government's official web portal to all federal, state and local government web resources and services.